Key Largo, Florida Weather Center

Moon Phase Calendar



Online Cameras

 


      

Current Conditions in Key Largo
1/24/2021 12:36:43 PM

75°F
Feels Like 81
Clouds
Humidity
77%
Pressure
30.09"
Wind
2 mph (NNW)
Dew Point
68°F
UV Index
6/10 (High)
Visibility
6 mi

Hourly Forecast

Date & Time Sun, Jan 24
12:00 PM
Sun, Jan 24
1:00 PM
Sun, Jan 24
2:00 PM
Sun, Jan 24
3:00 PM
Sun, Jan 24
4:00 PM
Sun, Jan 24
5:00 PM
Sun, Jan 24
6:00 PM
Sun, Jan 24
7:00 PM
Sun, Jan 24
8:00 PM
Sun, Jan 24
9:00 PM
Sun, Jan 24
10:00 PM
Sun, Jan 24
11:00 PM
Mon, Jan 25
12:00 AM
Mon, Jan 25
1:00 AM
Mon, Jan 25
2:00 AM
Mon, Jan 25
3:00 AM
Mon, Jan 25
4:00 AM
Mon, Jan 25
5:00 AM
Mon, Jan 25
6:00 AM
Mon, Jan 25
7:00 AM
Mon, Jan 25
8:00 AM
Mon, Jan 25
9:00 AM
Mon, Jan 25
10:00 AM
Mon, Jan 25
11:00 AM
Mon, Jan 25
12:00 PM
Mon, Jan 25
1:00 PM
Mon, Jan 25
2:00 PM
Mon, Jan 25
3:00 PM
Mon, Jan 25
4:00 PM
Mon, Jan 25
5:00 PM
Mon, Jan 25
6:00 PM
Mon, Jan 25
7:00 PM
Mon, Jan 25
8:00 PM
Mon, Jan 25
9:00 PM
Mon, Jan 25
10:00 PM
Mon, Jan 25
11:00 PM
Tue, Jan 26
12:00 AM
Tue, Jan 26
1:00 AM
Tue, Jan 26
2:00 AM
Tue, Jan 26
3:00 AM
Tue, Jan 26
4:00 AM
Tue, Jan 26
5:00 AM
Tue, Jan 26
6:00 AM
Tue, Jan 26
7:00 AM
Tue, Jan 26
8:00 AM
Tue, Jan 26
9:00 AM
Tue, Jan 26
10:00 AM
Tue, Jan 26
11:00 AM
Condition
Clouds

Clouds

Clouds

Clouds

Clouds

Clouds

Clouds

Clouds

Clouds

Clouds

Clouds

Clouds

Clouds

Clouds

Clouds

Clouds

Clouds

Clouds

Clouds

Clouds

Clouds

Clouds

Clouds

Clouds

Clouds

Clouds

Clouds

Clouds

Clouds

Clouds

Clouds

Clouds

Clouds

Clouds

Clouds

Clouds

Clouds

Clouds

Clouds

Clouds

Clouds

Clouds

Clouds

Clouds

Clouds

Clouds

Clouds

Clouds
Temperature 75°F75°F75°F74°F74°F74°F73°F73°F73°F73°F73°F73°F73°F73°F72°F72°F72°F72°F73°F73°F73°F74°F74°F74°F75°F75°F75°F75°F75°F75°F74°F74°F74°F74°F74°F75°F74°F74°F74°F74°F74°F74°F74°F74°F75°F75°F76°F76°F
Feels Like 79°F77°F75°F74°F73°F73°F72°F71°F71°F71°F71°F72°F72°F72°F72°F72°F72°F72°F72°F72°F71°F71°F71°F72°F72°F72°F72°F73°F73°F73°F74°F74°F73°F73°F74°F75°F75°F74°F74°F73°F73°F72°F73°F73°F74°F75°F75°F75°F
Cloudiness 22%25%59%34%23%26%21%27%100%53%38%29%23%22%15%47%58%68%75%74%86%93%95%97%97%97%100%70%64%59%66%72%89%94%96%97%98%98%100%83%89%92%93%94%100%100%100%100%
Visibility 6 mi6 mi6 mi6 mi6 mi6 mi6 mi6 mi6 mi6 mi6 mi6 mi6 mi6 mi6 mi6 mi6 mi6 mi6 mi6 mi6 mi6 mi6 mi6 mi6 mi6 mi6 mi6 mi6 mi6 mi6 mi6 mi6 mi6 mi6 mi6 mi6 mi6 mi6 mi6 mi6 mi6 mi6 mi6 mi6 mi6 mi6 mi6 mi
Precipitation 0%0%0%0%0%0%0%0%0%0%0%0%0%0%0%0%0%0%0%0%0%0%0%0%0%0%0%0%0%0%0%0%0%0%0%0%0%0%0%0%0%0%0%0%0%0%0%0%
Humidity 77%70%66%64%65%66%70%71%73%73%73%74%76%78%81%82%83%82%80%79%79%78%78%77%77%77%77%77%78%79%81%81%81%81%81%82%82%82%81%81%81%81%81%82%82%81%80%80%
Dew Point 68°F64°F63°F61°F62°F62°F63°F63°F64°F64°F64°F64°F65°F66°F66°F67°F67°F67°F66°F66°F66°F66°F67°F67°F67°F67°F67°F67°F68°F68°F68°F68°F68°F68°F69°F69°F69°F69°F68°F68°F68°F68°F68°F68°F69°F69°F69°F69°F
Pressure 30.09"30.09"30.06"30.06"30.03"30.06"30.06"30.06"30.09"30.09"30.09"30.09"30.09"30.06"30.06"30.06"30.03"30.03"30.03"30.03"30.06"30.06"30.06"30.09"30.06"30.03"30.03"30"30"30"30.03"30.03"30.03"30.03"30.03"30.03"30.03"30.03"30.03"30"30"30"30.03"30.03"30.06"30.06"30.09"30.09"
Wind Speed 4.7 mph5.1 mph6.2 mph7.8 mph8 mph8.5 mph9 mph10.3 mph11.5 mph11.8 mph11.4 mph10.9 mph10.7 mph10.6 mph10.7 mph10.7 mph11.6 mph12 mph11.7 mph11.4 mph13.4 mph14.8 mph15.2 mph14.8 mph15 mph15.4 mph16.1 mph15.2 mph15.1 mph14.4 mph12.9 mph13 mph14.2 mph14.5 mph13.1 mph12.1 mph12 mph12.4 mph13.2 mph14.4 mph14.4 mph15.3 mph14.5 mph13.8 mph13.1 mph13.1 mph13.2 mph14.3 mph
Wind
Direction
87°
E
101°
E
102°
ESE
105°
ESE
99°
E
92°
E
96°
E
96°
E
98°
E
98°
E
102°
ESE
106°
ESE
108°
ESE
106°
ESE
104°
ESE
99°
E
101°
E
106°
ESE
112°
ESE
119°
ESE
122°
ESE
127°
SE
127°
SE
127°
SE
131°
SE
135°
SE
138°
SE
138°
SE
135°
SE
136°
SE
139°
SE
140°
SE
142°
SE
141°
SE
139°
SE
137°
SE
133°
SE
135°
SE
136°
SE
135°
SE
136°
SE
138°
SE
142°
SE
146°
SE
150°
SSE
151°
SSE
154°
SSE
154°
SSE

Daily Forecast

Date High Low Precip. Humidity
Today
Jan 24

Clouds
75 °F
69 °F
0%
77%
Monday
Jan 25

Clouds
75 °F
72 °F
0%
77%
Tuesday
Jan 26

Clouds
76 °F
74 °F
0%
80%
Wednesday
Jan 27

Clouds
76 °F
74 °F
0%
76%
Thursday
Jan 28

Clouds
75 °F
65 °F
0%
77%
Friday
Jan 29

Rain
67 °F
61 °F
20%
66%
Saturday
Jan 30

Clouds
69 °F
67 °F
0%
59%
Sunday
Jan 31

Rain
72 °F
69 °F
20%
66%
Monday
Feb 1

Clear
74 °F
70 °F
0%
60%
Tuesday
Feb 2

Rain
73 °F
68 °F
28%
67%
Wednesday
Feb 3

Clear
74 °F
68 °F
19%
65%
Thursday
Feb 4

Clear
75 °F
72 °F
0%
71%
Friday
Feb 5

Clouds
76 °F
73 °F
0%
80%
Saturday
Feb 6

Clouds
77 °F
75 °F
0%
80%
Sunday
Feb 7

Rain
77 °F
75 °F
20%
79%
Monday
Feb 8

Clear
76 °F
74 °F
0%
81%


Temperature 8-14 Day Outlook



Precipitation 8-14 Day Outlook




Quick Links
Key Largo, Florida News
Key Largo, Florida Photos
Key Largo, Florida Videos




About Us
Contact Us
Site Map
Search Site
Advertise With Us
   
KeyLargo.CoastalTown.com
THE KEY LARGO, FLORIDA WEBSITE

Copyright 2021, Coastal Town
Privacy    |    Legal